Tiempo cada hora Almaly

Hoy, 27 Julio, Martes

Tiempo Temperatura Precipitaciones Viento Presión Humedad
00:00 +29°C° 0 mm 9 mps 705 mmHg 23%
01:00 +28°C° 0 mm 9 mps 705 mmHg 24%
02:00 +27°C° 0 mm 10 mps 705 mmHg 25%
03:00 +26°C° 0 mm 10 mps 705 mmHg 27%
04:00 +26°C° 0 mm 9 mps 705 mmHg 29%
05:00 +24°C° 0 mm 9 mps 705 mmHg 32%
06:00 +26°C° 0 mm 10 mps 705 mmHg 32%
07:00 +27°C° 0 mm 10 mps 705 mmHg 32%
08:00 +28°C° 0 mm 10 mps 706 mmHg 32%
09:00 +29°C° 0 mm 10 mps 706 mmHg 30%
10:00 +32°C° 0 mm 10 mps 705 mmHg 28%
11:00 +33°C° 0 mm 10 mps 705 mmHg 26%
12:00 +34°C° 0 mm 10 mps 705 mmHg 24%
13:00 +36°C° 0 mm 10 mps 705 mmHg 21%
14:00 +37°C° 0 mm 9 mps 705 mmHg 19%
15:00 +35°C° 0 mm 9 mps 704 mmHg 17%
16:00 +35°C° 0 mm 9 mps 704 mmHg 16%
17:00 +35°C° 0 mm 9 mps 704 mmHg 15%
18:00 +34°C° 0 mm 9 mps 704 mmHg 15%
19:00 +32°C° 0 mm 9 mps 704 mmHg 15%
20:00 +31°C° 0 mm 8 mps 703 mmHg 16%
21:00 +29°C° 0 mm 8 mps 704 mmHg 17%
22:00 +28°C° 0 mm 9 mps 704 mmHg 18%
23:00 +27°C° 0 mm 9 mps 704 mmHg 19%

Mañana, 28 Julio, Miércoles

Tiempo Temperatura Precipitaciones Viento Presión Humedad
00:00 +26°C° 0 mm 8 mps 703 mmHg 21%
01:00 +24°C° 0 mm 7 mps 703 mmHg 24%
02:00 +23°C° 0 mm 7 mps 703 mmHg 26%
03:00 +23°C° 0 mm 6 mps 703 mmHg 27%
04:00 +22°C° 0 mm 6 mps 703 mmHg 28%
05:00 +22°C° 0 mm 6 mps 703 mmHg 30%
06:00 +23°C° 0 mm 7 mps 703 mmHg 27%
07:00 +26°C° 0 mm 7 mps 703 mmHg 25%
08:00 +27°C° 0 mm 8 mps 704 mmHg 22%
09:00 +29°C° 0 mm 8 mps 704 mmHg 20%
10:00 +32°C° 0 mm 8 mps 704 mmHg 19%
11:00 +33°C° 0 mm 8 mps 704 mmHg 17%
12:00 +34°C° 0 mm 7 mps 703 mmHg 16%
13:00 +35°C° 0 mm 7 mps 703 mmHg 15%
14:00 +36°C° 0 mm 6 mps 703 mmHg 14%
15:00 +36°C° 0 mm 6 mps 703 mmHg 13%
16:00 +36°C° 0 mm 6 mps 703 mmHg 13%
17:00 +36°C° 0 mm 6 mps 703 mmHg 13%
18:00 +34°C° 0 mm 6 mps 702 mmHg 14%
19:00 +32°C° 0 mm 5 mps 702 mmHg 15%
20:00 +29°C° 0 mm 4 mps 702 mmHg 17%
21:00 +28°C° 0 mm 5 mps 702 mmHg 17%
22:00 +28°C° 0 mm 5 mps 702 mmHg 17%
23:00 +27°C° 0 mm 5 mps 702 mmHg 17%

Pasado mañana, 29 Julio, Jueves

Tiempo Temperatura Precipitaciones Viento Presión Humedad
00:00 +26°C° 0 mm 4 mps 702 mmHg 18%
01:00 +25°C° 0 mm 4 mps 702 mmHg 20%
02:00 +23°C° 0 mm 4 mps 702 mmHg 22%
03:00 +22°C° 0 mm 3 mps 702 mmHg 24%
04:00 +22°C° 0 mm 3 mps 702 mmHg 26%
05:00 +21°C° 0 mm 3 mps 702 mmHg 27%
06:00 +24°C° 0 mm 2 mps 702 mmHg 25%
07:00 +27°C° 0 mm 2 mps 702 mmHg 22%
08:00 +29°C° 0 mm 1 mps 703 mmHg 20%
09:00 +30°C° 0 mm 2 mps 703 mmHg 18%
10:00 +33°C° 0 mm 3 mps 703 mmHg 16%
11:00 +34°C° 0 mm 5 mps 703 mmHg 14%
12:00 +35°C° 0 mm 5 mps 703 mmHg 13%
13:00 +35°C° 0 mm 5 mps 703 mmHg 12%
14:00 +36°C° 0 mm 5 mps 703 mmHg 11%
15:00 +36°C° 0 mm 5 mps 703 mmHg 12%
16:00 +35°C° 0 mm 6 mps 703 mmHg 12%
17:00 +35°C° 0 mm 6 mps 703 mmHg 13%
18:00 +33°C° 0 mm 6 mps 704 mmHg 15%
19:00 +30°C° 0 mm 5 mps 704 mmHg 17%
20:00 +28°C° 0 mm 5 mps 704 mmHg 20%
21:00 +27°C° 0 mm 4 mps 705 mmHg 21%
22:00 +27°C° 0 mm 3 mps 705 mmHg 21%
23:00 +26°C° 0 mm 3 mps 705 mmHg 22%

30 Julio, Viernes

Tiempo Temperatura Precipitaciones Viento Presión Humedad
00:00 +25°C° 0 mm 3 mps 705 mmHg 24%
01:00 +24°C° 0 mm 3 mps 705 mmHg 26%
02:00 +22°C° 0 mm 3 mps 705 mmHg 28%
03:00 +22°C° 0 mm 3 mps 705 mmHg 30%
04:00 +21°C° 0 mm 3 mps 705 mmHg 31%
05:00 +21°C° 0 mm 3 mps 706 mmHg 32%
06:00 +23°C° 0 mm 4 mps 706 mmHg 29%
07:00 +25°C° 0 mm 5 mps 707 mmHg 26%
08:00 +27°C° 0 mm 6 mps 707 mmHg 22%
09:00 +29°C° 0 mm 7 mps 707 mmHg 20%
10:00 +32°C° 0 mm 8 mps 707 mmHg 17%
11:00 +34°C° 0 mm 10 mps 708 mmHg 15%
12:00 +34°C° 0 mm 9 mps 707 mmHg 14%
13:00 +35°C° 0 mm 9 mps 707 mmHg 13%
14:00 +37°C° 0 mm 9 mps 707 mmHg 13%
15:00 +37°C° 0 mm 9 mps 707 mmHg 13%
16:00 +37°C° 0 mm 9 mps 707 mmHg 14%
17:00 +35°C° 0 mm 9 mps 707 mmHg 14%
18:00 +34°C° 0 mm 9 mps 706 mmHg 15%
19:00 +32°C° 0 mm 8 mps 706 mmHg 16%
20:00 +31°C° 0 mm 8 mps 706 mmHg 17%
21:00 +29°C° 0 mm 8 mps 706 mmHg 18%
22:00 +28°C° 0 mm 8 mps 706 mmHg 18%
23:00 +28°C° 0 mm 8 mps 706 mmHg 18%

31 Julio, Sábado

Tiempo Temperatura Precipitaciones Viento Presión Humedad
00:00 +27°C° 0 mm 8 mps 705 mmHg 21%
01:00 +26°C° 0 mm 8 mps 705 mmHg 24%
02:00 +24°C° 0 mm 7 mps 705 mmHg 27%
03:00 +23°C° 0 mm 7 mps 705 mmHg 28%
04:00 +23°C° 0 mm 6 mps 705 mmHg 28%
05:00 +22°C° 0 mm 6 mps 705 mmHg 29%
06:00 +26°C° 0 mm 7 mps 705 mmHg 25%
07:00 +28°C° 0 mm 7 mps 705 mmHg 22%
08:00 +31°C° 0 mm 8 mps 706 mmHg 19%
09:00 +32°C° 0 mm 9 mps 706 mmHg 17%
10:00 +34°C° 0 mm 9 mps 706 mmHg 16%
11:00 +36°C° 0 mm 10 mps 706 mmHg 14%
12:00 +37°C° 0 mm 10 mps 706 mmHg 13%
13:00 +38°C° 0 mm 9 mps 705 mmHg 12%
14:00 +39°C° 0 mm 9 mps 705 mmHg 11%
15:00 +39°C° 0 mm 9 mps 705 mmHg 10%
16:00 +39°C° 0 mm 9 mps 705 mmHg 10%
17:00 +39°C° 0 mm 9 mps 705 mmHg 9%
18:00 +37°C° 0 mm 9 mps 705 mmHg 10%
19:00 +34°C° 0 mm 9 mps 705 mmHg 11%
20:00 +32°C° 0 mm 10 mps 705 mmHg 12%
21:00 +31°C° 0 mm 10 mps 704 mmHg 13%
22:00 +29°C° 0 mm 10 mps 704 mmHg 14%
23:00 +28°C° 0 mm 10 mps 704 mmHg 15%

1 Agosto, Domingo

Tiempo Temperatura Precipitaciones Viento Presión Humedad
00:00 +28°C° 0 mm 10 mps 704 mmHg 17%
01:00 +27°C° 0 mm 9 mps 704 mmHg 20%
02:00 +26°C° 0 mm 8 mps 703 mmHg 22%
03:00 +26°C° 0 mm 8 mps 703 mmHg 23%
04:00 +26°C° 0 mm 8 mps 703 mmHg 23%
05:00 +24°C° 0 mm 8 mps 703 mmHg 23%
06:00 +27°C° 0 mm 9 mps 703 mmHg 21%
07:00 +28°C° 0 mm 10 mps 703 mmHg 18%
08:00 +29°C° 0 mm 10 mps 704 mmHg 16%
09:00 +32°C° 0 mm 11 mps 704 mmHg 14%
10:00 +34°C° 0 mm 11 mps 704 mmHg 13%
11:00 +36°C° 0 mm 12 mps 704 mmHg 11%
12:00 +37°C° 0 mm 11 mps 704 mmHg 10%
13:00 +38°C° 0 mm 10 mps 704 mmHg 9%
14:00 +40°C° 0 mm 10 mps 704 mmHg 8%
15:00 +40°C° 0 mm 10 mps 704 mmHg 8%
16:00 +39°C° 0 mm 10 mps 703 mmHg 8%
17:00 +39°C° 0 mm 10 mps 703 mmHg 8%
18:00 +38°C° 0 mm 9 mps 703 mmHg 9%
19:00 +35°C° 0 mm 9 mps 703 mmHg 9%
20:00 +34°C° 0 mm 8 mps 703 mmHg 10%
21:00 +33°C° 0 mm 9 mps 703 mmHg 13%
22:00 +32°C° 0 mm 9 mps 703 mmHg 15%
23:00 +31°C° 0 mm 10 mps 703 mmHg 17%
Mostrar más

Necesitamos Su Consentimiento

Meteoprog y nuestros Proveedores de Servicios pueden almacenar y acceder a sus datos personales como cookies, identificadores de dispositivo u otras tecnologías similares de su dispositivo y procesar dichos datos para personalizar contenido y anuncios, además de ofrecer funciones de redes sociales y analizar el tráfico.

  • Almacenar y/o acceder a información en su dispositivo

    Se puede almacenar o acceder a cookies, identificadores de dispositivo u otra información de su dispositivo para los fines anteriormente indicados.

  • Anuncios y contenido personalizados, medición de anuncios y contenido, percepciones del público, y desarrollo de productos

    Los anuncios y el contenido pueden personalizarse en base a su perfil. Se pueden añadir más datos para personalizar mejor los anuncios y contenidos. Se puede medir el rendimiento de los anuncios y contenidos. Se puede obtener la percepción sobre el público que ha visto los anuncios y contenidos. Dichos datos pueden usarse para desarrollar o mejorar la experiencia del usuario, sistemas y software.

Al hacer clic en ‘Estoy De Acuerdo’ usted permitirá el uso de las cookies, identificadores de dispositivo, balizas web u otras tecnologías similares indicadas. Su configuración puede cambiarse desde el navegador de su dispositivo.

Para ciertos fines, los intereses legítimos pueden ser considerados por encima del consentimiento. Puede leer más sobre ello en nuestra Política de Privacidad y Cookies.